Weather History for KONP - July, 2013

Change the Weather History Date:

Sunday, July 14, 2013

  Actual Average Record
Temperature  
Mean Temperature 50 °F -  
Max Temperature 59 °F 62 °F 69 °F (2003)
Min Temperature 42 °F 52 °F 42 °F (2008)
Degree Days  
Heating Degree Days 14    
Moisture  
Dew Point 49 °F    
Average Humidity 90    
Maximum Humidity 100    
Minimum Humidity 77    
Precipitation  
Precipitation 0.00 in - - ()
Sea Level Pressure  
Sea Level Pressure 30.11 in    
Wind  
Wind Speed 7 mph (NNW)    
Max Wind Speed 24 mph    
Max Gust Speed 33 mph    
Visibility 6 miles    
Events Fog    
Averages and records for this station are not official NWS values.
T = Trace of Precipitation, MM = Missing Value Source: NWS Daily Summary

Daily Weather History Graph

Daily Weather History Graph

Search for Another Location

Airport or City:

Trip Planner

Search our weather history database for the weather conditions in past years. The results will help you decide how hot, cold, wet, or windy it might be!

Date:

Astronomy

Jul. 14, 2013 Rise Set
Actual Time 5:44 AM PDT 8:59 PM PDT
Civil Twilight 5:09 AM PDT 9:34 PM PDT
Nautical Twilight 4:23 AM PDT 10:20 PM PDT
Astronomical Twilight 3:26 AM PDT 11:16 PM PDT
Moon 12:25 PM PDT (7/14) 11:55 PM PDT (7/14)
Length of Visible Light 16h 25m
Length of Day
15h 14m
Waxing Crescent, 36% of the Moon is Illuminated
Jul 14
Waxing Crescent
Jul 15
First Quarter
Jul 22
Full
Jul 29
Last Quarter
Aug 6
New

Hourly Weather History & Observations

Time (PDT) Temp. Windchill Dew Point Humidity Pressure Visibility Wind Dir Wind Speed Gust Speed Precip Events Conditions
12:15 AM 48.2 °F - 46.4 °F 93% 30.13 in 5.0 mi Calm Calm - N/A   Clear
12:35 AM 46.4 °F - 46.4 °F 100% 30.13 in 5.0 mi Calm Calm - N/A   Clear
12:55 AM 46.4 °F - 44.6 °F 93% 30.13 in 5.0 mi Calm Calm - N/A   Clear
1:15 AM 44.6 °F - 44.6 °F 100% 30.13 in 5.0 mi Calm Calm - N/A   Clear
1:35 AM 44.6 °F - 44.6 °F 100% 30.13 in 5.0 mi Calm Calm - N/A   Clear
1:55 AM 44.6 °F - 42.8 °F 93% 30.13 in 5.0 mi Calm Calm - N/A   Clear
2:15 AM 44.6 °F - 42.8 °F 93% 30.13 in 5.0 mi Calm Calm - N/A   Clear
2:35 AM 44.6 °F - 42.8 °F 93% 30.13 in 5.0 mi Calm Calm - N/A   Clear
2:55 AM 42.8 °F - 42.8 °F 100% 30.12 in 5.0 mi Calm Calm - N/A   Clear
3:15 AM 42.8 °F - 41.0 °F 93% 30.12 in 5.0 mi Calm Calm - N/A   Clear
3:35 AM 42.8 °F - 42.8 °F 100% - 5.0 mi Calm Calm - N/A   Clear
3:55 AM 42.8 °F - 42.8 °F 100% 30.12 in 1.5 mi Calm Calm - N/A   Mist
4:15 AM 42.8 °F 41.1 °F 42.8 °F 100% - 2.0 mi NE 3.5 mph - N/A   Clear
4:35 AM 42.8 °F - 42.8 °F 100% 30.12 in 3.0 mi Calm Calm - N/A   Clear
4:55 AM 44.6 °F 43.1 °F 44.6 °F 100% 30.12 in 5.0 mi ENE 3.5 mph - N/A   Clear
5:15 AM 42.8 °F 41.1 °F 42.8 °F 100% 30.12 in 7.0 mi ENE 3.5 mph - N/A   Clear
5:35 AM 44.6 °F - 44.6 °F 100% - 7.0 mi Calm Calm - N/A   Clear
5:55 AM 44.6 °F - 44.6 °F 100% 30.13 in 0.5 mi Calm Calm - N/A Fog Fog
6:15 AM 42.8 °F - 42.8 °F 100% 30.13 in 0.8 mi Calm Calm - N/A   Mostly Cloudy
6:35 AM 44.6 °F - 44.6 °F 100% 30.13 in 1.0 mi Calm Calm - N/A   Mostly Cloudy
6:55 AM 46.4 °F - 46.4 °F 100% 30.13 in 0.2 mi Calm Calm - N/A Fog Fog
7:15 AM 46.4 °F - 46.4 °F 100% 30.14 in 0.2 mi Calm Calm - N/A Fog Fog
7:35 AM 50.0 °F - 48.2 °F 94% 30.14 in 0.2 mi Calm Calm - N/A Fog Fog
7:55 AM 50.0 °F - 50.0 °F 100% 30.14 in 3.0 mi North 3.5 mph - N/A   Overcast
8:15 AM 50.0 °F - 50.0 °F 100% 30.14 in 5.0 mi NNW 5.8 mph - N/A   Mostly Cloudy
8:35 AM 51.8 °F - 50.0 °F 94% 30.14 in 5.0 mi NNW 5.8 mph - N/A   Overcast
8:55 AM 51.8 °F - 51.8 °F 100% 30.14 in 7.0 mi NNW 5.8 mph - N/A   Scattered Clouds
9:15 AM 53.6 °F - 51.8 °F 94% 30.14 in 7.0 mi NNW 5.8 mph - N/A   Clear
9:35 AM 55.4 °F - 51.8 °F 88% 30.14 in 7.0 mi NNW 11.5 mph - N/A   Clear
9:55 AM 53.6 °F - 50.0 °F 88% 30.14 in 10.0 mi NNW 12.7 mph - N/A   Clear
10:15 AM 53.6 °F - 50.0 °F 88% 30.14 in 10.0 mi NNW 12.7 mph - N/A   Clear
10:35 AM 53.6 °F - 50.0 °F 88% 30.14 in 10.0 mi NNW 12.7 mph 17.3 mph N/A   Clear
10:55 AM 53.6 °F - 50.0 °F 88% 30.13 in 10.0 mi NNW 17.3 mph - N/A   Clear
11:15 AM 55.4 °F - 50.0 °F 82% 30.13 in 10.0 mi NNW 16.1 mph 20.7 mph N/A   Clear
11:35 AM 55.4 °F - 51.8 °F 88% 30.13 in 10.0 mi NNW 16.1 mph - N/A   Clear
11:55 AM 57.2 °F - 51.8 °F 82% 30.13 in 10.0 mi NNW 17.3 mph 21.9 mph N/A   Clear
12:15 PM 55.4 °F - 50.0 °F 82% 30.12 in 10.0 mi NNW 17.3 mph - N/A   Clear
12:35 PM 57.2 °F - 51.8 °F 82% 30.12 in 10.0 mi NNW 19.6 mph 24.2 mph N/A   Clear
12:55 PM 57.2 °F - 51.8 °F 82% 30.12 in 7.0 mi North 19.6 mph - N/A   Clear
1:15 PM 59.0 °F - 51.8 °F 77% 30.11 in 7.0 mi NNW 23.0 mph 27.6 mph N/A   Clear
1:35 PM 59.0 °F - 51.8 °F 77% 30.11 in 7.0 mi NNW 21.9 mph 28.8 mph N/A   Clear
1:55 PM 59.0 °F - 51.8 °F 77% 30.11 in 7.0 mi NNW 21.9 mph 29.9 mph N/A   Clear
2:15 PM 59.0 °F - 51.8 °F 77% 30.11 in 7.0 mi North 23.0 mph 32.2 mph N/A   Clear
2:35 PM 59.0 °F - 51.8 °F 77% 30.11 in 7.0 mi North 23.0 mph 31.1 mph N/A   Clear
2:55 PM 59.0 °F - 51.8 °F 77% 30.11 in 7.0 mi NNW 21.9 mph 29.9 mph N/A   Clear
3:15 PM 59.0 °F - 51.8 °F 77% 30.10 in 7.0 mi North 21.9 mph 29.9 mph N/A   Clear
3:35 PM 59.0 °F - 51.8 °F 77% 30.10 in 7.0 mi NNW 18.4 mph 27.6 mph N/A   Clear
3:55 PM 59.0 °F - 51.8 °F 77% 30.09 in 7.0 mi North 24.2 mph 32.2 mph N/A   Clear
4:15 PM 59.0 °F - 51.8 °F 77% - 7.0 mi North 20.7 mph 32.2 mph N/A   Clear
4:35 PM 59.0 °F - 51.8 °F 77% 30.08 in 7.0 mi North 21.9 mph 33.4 mph N/A   Clear
4:55 PM 57.2 °F - 51.8 °F 82% 30.08 in 7.0 mi North 21.9 mph 26.5 mph N/A   Clear
5:15 PM 57.2 °F - 51.8 °F 82% 30.08 in 7.0 mi North 18.4 mph 28.8 mph N/A   Clear
5:35 PM 57.2 °F - 51.8 °F 82% - 7.0 mi North 21.9 mph 27.6 mph N/A   Clear
5:55 PM 55.4 °F - 51.8 °F 88% 30.07 in 7.0 mi North 17.3 mph 27.6 mph N/A   Clear
6:15 PM 55.4 °F - 51.8 °F 88% 30.06 in 7.0 mi North 20.7 mph 29.9 mph N/A   Clear
6:35 PM 55.4 °F - 51.8 °F 88% 30.06 in 7.0 mi NNW 23.0 mph 27.6 mph N/A   Clear
6:55 PM 55.4 °F - 50.0 °F 82% 30.06 in 7.0 mi North 24.2 mph 28.8 mph N/A   Clear
7:15 PM 55.4 °F - 50.0 °F 82% 30.06 in 7.0 mi NNW 19.6 mph 26.5 mph N/A   Clear
7:35 PM 53.6 °F - 50.0 °F 88% 30.06 in 7.0 mi NNW 19.6 mph 23.0 mph N/A   Clear
7:55 PM 53.6 °F - 50.0 °F 88% 30.06 in 7.0 mi NNW 18.4 mph 25.3 mph N/A   Clear
8:15 PM 53.6 °F - 50.0 °F 88% 30.06 in 7.0 mi NNW 17.3 mph 26.5 mph N/A   Clear
8:35 PM 51.8 °F - 50.0 °F 94% 30.06 in 7.0 mi NNW 16.1 mph 24.2 mph N/A   Clear
8:55 PM 51.8 °F - 50.0 °F 94% 30.06 in 5.0 mi NNW 16.1 mph 23.0 mph N/A   Clear
9:15 PM 51.8 °F - 50.0 °F 94% 30.06 in 5.0 mi NNW 12.7 mph - N/A   Clear
9:35 PM 51.8 °F - 50.0 °F 94% 30.07 in 7.0 mi North 9.2 mph 16.1 mph N/A   Clear
9:55 PM 51.8 °F - 50.0 °F 94% 30.07 in 7.0 mi North 6.9 mph - N/A   Clear
10:15 PM 51.8 °F - 50.0 °F 94% 30.07 in 7.0 mi NNW 11.5 mph - N/A   Clear
10:35 PM 51.8 °F - 48.2 °F 88% 30.07 in 7.0 mi North 9.2 mph - N/A   Clear
10:55 PM 50.0 °F - 48.2 °F 94% 30.07 in 7.0 mi NNW 11.5 mph - N/A   Clear
11:15 PM 50.0 °F - 48.2 °F 94% 30.07 in 7.0 mi North 5.8 mph - N/A   Clear
11:35 PM 50.0 °F - 46.4 °F 87% 30.07 in 7.0 mi North 5.8 mph - N/A   Clear
11:55 PM 50.0 °F - 46.4 °F 87% 30.07 in 7.0 mi Calm Calm - N/A   Clear